www.pogodaiklimat.ru

Погода и климат >> Архив погоды >> Россия >> Эвенкия >> Тутончаны


АРХИВ ПОГОДЫ в Тутончанах

Время (UTC), дата Ветер
(напр.,м/с)
 
Видим.   Явления Облачность Т
(С)
Тd
(С)
f
(%)
Тe
(С)
Тes
(С)
Комфортность P
(гПа)
Po
(гПа)
Тmin
(С)
Tmax
(С)
R
(мм)
R24
(мм)
S
(см)
00 13.09 В 2 4000 м слаб. ливневой снег 10/10 600 м
[Cb cap]
-3.1 -3.5 97 -7 -7 998.5 985.1 -7.7 0.7 <0.5
06 13.09 ЮВ 2 50 км {ливн. осадки} 9/9 600 м
[Cb cap]
+0.7 -0.1 94 -3 -2 1000.0 986.8
12 13.09 СЗ 2 50 км 8/3 1000 м
[Sc Ac trans]
+0.6 -0.5 92 -3 -3 1005.0 991.7 +2.6 2
18 13.09 СВ 1 н/о 9/6 1000 м
[Sc Ac trans]
-5.0 -6.0 93 -7 -7 1007.9 994.3
00 14.09 штиль 0 50 км 10/10 1000 м
[Sc]
-2.0 -2.6 96 -3 -3 1008.6 995.2 -5.0
06 14.09 СЗ 3 50 км ?/? +3.1 +1.6 90 -1 -1 1009.7 996.5
12 14.09 штиль 0 50 км {ливн. осадки} 9/9 600 м
[Cb cap]
+3.0 +1.5 90 +2 +2 1010.5 997.3 +4.5 0.0
18 14.09 СЗ 1 н/о 9/9 600 м
[Cb cap]
+1.5 +0.4 92 -0 -0 1010.0 996.8
00 15.09 СЗ 1 50 км 9/9 600 м
[Cb cap]
+0.1 -0.5 96 -2 -2 1010.1 996.8 -1.0
06 15.09 З 5
{11}
50 км {ливн. осадки} 10/6 600 м
[Cb cap As op]
+3.1 -1.7 71 -2 -2 1009.8 996.6
12 15.09 штиль 0 50 км 9/6 1000 м
[Sc Ac trans]
+3.0 -3.1 64 +2 +2 1011.3 998.1 +3.5 0.0
18 15.09 З 4 н/о 9/9 1000 м
[Sc]
+2.5 -1.7 74 -2 -2 1012.9 999.6
00 16.09 СЗ 1 50 км 5/3 1000 м
[Sc Ci fib]
-5.0 -5.3 98 -8 -8 1015.8 1002.1 -5.0
06 16.09 В 2 50 км 8/3 1000 м
[Sc Ci fib]
+5.5 -3.7 52 +4 +6 1015.1 1001.9
12 16.09 Ю 1 50 км 10/3 1000 м
[Sc Ac As]
+6.3 -4.0 48 +6 +6 1014.6 1001.5 +7.5
18 16.09 В 1 н/о слаб. ливневой дождь 10/10 600 м
[Cb cap]
+3.0 +2.5 97 +1 +1 1013.2 1000.0
00 17.09 В 2 50 км в посл. час ливневой дождь 10/10 600 м
[Cb cap]
+3.3 +3.1 99 0 0 1012.0 998.8 +3.0 2
06 17.09 ЮВ 2 50 км {ливн. осадки} 10/10 300 м
[Cb cap]
+5.5 +5.0 97 +3 +3 1011.9 998.8
12 17.09 ЮВ 3 50 км 10/10 600 м
[Cb cap]
+7.0 +6.3 95 +4 +4 1010.6 997.6 +7.1 2
18 17.09 В 1 н/о 10/10 600 м
[Cb cap]
+6.9 +6.5 97 +6 +6 1008.4 995.4
00 18.09 ЮВ 1 50 км {ливн. осадки} 9/9 600 м
[Cb cap]
+7.9 +7.5 97 +7 +7 1005.1 992.2 +6.5 0.0
06 18.09 штиль 0 10 км слаб. ливневой дождь 10/10 600 м
[Cb cap]
+10.0 +9.6 97 +9 +9 1003.7 990.9
12 18.09 СЗ 2 50 км {ливн. осадки} 8/8 600 м
[Cb cap]
+9.5 +5.3 75 +8 +8 1007.9 995.0 +11.7 6
18 18.09 штиль 0 н/о ясно -0.5 -0.8 98 -2 -2 1011.7 998.3
00 19.09 штиль 0 50 км в посл. час туман {ливн. осадки} 10/10 600 м
[Cb cap]
+0.5 +0.2 98 -1 -1 1013.2 999.8 -1.5 0.3
06 19.09 ЮВ 3 50 км 9/9 1000 м
[Cb cap]
+8.0 +6.3 89 +5 +5 1011.2 998.2
12 19.09 В 3 10 км слаб. ливневой дождь 10/10 600 м
[Cb cap]
+9.6 +8.8 95 +7 +7 1005.6 992.7 +12.7 0.9
18 19.09 ЮВ 2
{11}
н/о слаб. ливневой дождь 10/10 600 м
[Cb cap]
+9.3 +8.9 97 +7 +7 997.8 985.1

 

Местоположение метеостанции Тутончаны (Эвенкия, Россия): широта 64.20 долгота 93.78 высота над уровнем моря 106 м.

В архиве по умолчанию представлена погода в Тутончанах за последнюю неделю. Архивные данные за месяц целиком и за предыдущие месяцы, начиная с января 2011 года, Вы можете получить, выбрав интересующий диапазон дат из раскрывающегося списка и нажав кнопку "Ввод!".


*Определитесь, кто Вы:
робот инопланетянин человек

Внимание! Время в таблицах - всемирное. Для получения местного времени необходимо прибавить поправку, которая равна 7 ч.

Смотрите также архив погоды в соседних городах и на ближайших метеорологических станциях:

Погода в Кузьмовке (Эвенкия, Россия) (225 км)
Погода в Большом Пороге (Эвенкия, Россия) (237 км)
Погода в Тембенчи (Эвенкия, Россия) (258 км)
Погода в Агате (Эвенкия, Россия) (298 км)
Погода в Верещагино (Красноярский край, Россия) (305 км)
Погода в Бахте (Красноярский край, Россия) (306 км)
Погода в Верхнеимбатске (Красноярский край, Россия) (310 км)
Погода в Байките (Эвенкия, Россия) (310 км)
Погода в Туре (Эвенкия, Россия) (320 км)
Погода в Туруханске (Красноярский край, Россия) (326 км)

Пояснения к столбцам:

Ветер - указаны скорость ветра в м/с - средняя за 10 мин, порывы в срок и между сроками (в фигурных скобках) и направление, откуда дует ветер: С - северный, СВ - северо-восточный, В - восточный, ЮВ - юго-восточный, Ю - южный, ЮЗ - юго-западный, З - западный, СЗ - северо-западный.
Видимость - горизонтальная дальность видимости в метрах или километрах. При видимости от 1 до 10 км при отсутствии осадков обычно наблюдается дымка, при ухудшении видимости до 1 км и менее - туман. В сухую погоду видимость может ухудшаться дымом, пылью или мглою.
Явления - указаны атмосферные явления, наблюдавшиеся в срок или в последний час перед сроком; фигурными скобками обозначены явления, наблюдавшиеся между сроками (за 1-3 часа до срока); квадратными скобками обозначены град или гололедные отложения с указанием их диаметра в мм.
Облачность - указаны через наклонную черту общая и нижняя облачность в баллах и высота нижней границы облаков в метрах; квадратными скобками обозначены формы облаков: Ci - перистые, Cs - перисто-слоистые, Cc - перисто-кучевые, Ac - высококучевые, As - высокослоистые, Sc - слоисто-кучевые, Ns - слоисто-дождевые, Cu - кучевые, Cb - кучево-дождевые. Подробнее классификацию облаков см. в Атласе облаков (PDF).
T - Температура воздуха - температура, измеренная на высоте 2 м над землей.
Td - Температура точки росы - температура, при понижении до которой содержащийся в воздухе водяной пар достигнет насыщения.
f - Относительная влажность воздуха - влажноcть воздуха, измеренная на высоте 2 м над землей.
Te - Эффективная температура - температура, которую ощущает одетый по сезону человек в тени. Характеристика душности погоды. При расчете учитывается влияние влажности воздуха и скорости ветра на теплоощущения человека.
Tes - Эффективная температура на солнце - температура, которую ощущает человек, с поправкой на солнечный нагрев. Характеристика знойности погоды. Зависит от высоты солнца над горизонтом, облачности и скорости ветра. Ночью, в пасмурную погоду, а также при ветре 12 м/с и более поправка равна нулю.
P - Атмосферное давление - приведенное к уровню моря атмосферное давление.
Po - Атмосферное давление - измеренное на уровне метеостанции атмосферное давление.
Tmin - Минимальная температура - минимум температуры воздуха на высоте 2 м над землей.
Tmax - Максимальная температура - максимум температуры воздуха на высоте 2 м над землей.
R - Количество осадков - Количество выпавших осадков за период времени, мм. При наведении курсора мыши на число - период времени, за который выпало указанное количество осадков.
R24 - Количество осадков - Количество выпавших осадков за 24 часа, мм.
S - Снежный покров - Высота снежного покрова, см. При наведении курсора мыши на число - состояние снежного покрова и степень покрытия местности в баллах.